Back to catalog

STARLINK-34461

AliveCommunicationsVLEO
NORAD 64418·PAYLOAD·🇺🇸 United States

Launched Jun 17, 2025 from Vandenberg Space Force Base

Loading…

Next Passes (next 24 hours)

TLE

FreshSource: CelesTrak SupGP

Epoch: Sep 14, 2026, 15:14 UTC

1 64418C 25129G   26257.63520833  .00013745  00000+0  46611-3 0  2571
2 64418  69.9992 316.6070 0003679 275.0785 164.5519 15.30398829    11

Track STARLINK-34461 in real time with AllMySat

Download on the App Store